Location: Adavinekkalam
(16.6301°N, 80.7229°E)
Time: 10:52:17
(UTC+00:00)

ATLAS CENTAUR Rocket - Pass Details

Date: 15 May 2026
Orbit: 677 x 36560 km, 28.3° (Epoch: 5 June)

Event Time Altitude Azimuth Distance (km) Brightness Sun altitude
Rises 15:25:34 0° 290° (WNW) 3,075 6.2 -31.7°
Reaches altitude 10° 15:27:30 10° 286° (WNW) 2,097 5.0 -32.1°
Enters shadow 15:29:41 36° 272° (W) 1,145 3.2 -32.5°
